Regional Weather Roundup
Issued by NWS

Home | Current Version | Previous Version | Text Only | Print | Product List | Glossary Off
Versions: 1 2 3 4 5 6 7 8 9 10 11 12 13 14 15 16 17 18 19 20 21 22 23 24 25 26 27 28 29 30 31 32 33 34 35 36 37 38 39 40 41 42 43 44 45 46 47 48 49 50

000
ASUS46 KSTO 290204
RWRCA

NORTHERN AND CENTRAL CA REGIONAL WEATHER ROUNDUP
NATIONAL WEATHER SERVICE SACRAMENTO CA
600 PM PST WED JAN 28 2015

NOTE: FAIR INDICATES FEW OR NO CLOUDS BELOW 12,000 FEET WITH NO
SIGNIFICANT WEATHER AND/OR OBSTRUCTIONS TO VISIBILITY.

CAZ001-003-290300-
NORTHWEST AREA

CITY           SKY/WX    TMP DP  RH WIND       PRES   REMARKS
CRESCENT CITY  CLOUDY    53  51  93 N3        30.27S
UKIAH          CLEAR     57  42  57 S5        30.17S
$$

CAZ006-505>513-290300-
BAY AREA

CITY           SKY/WX    TMP DP  RH WIND       PRES   REMARKS
SANTA ROSA     CLEAR     57  48  72 SE6       30.13S
SAN RAFAEL     N/A       66  MM  MM MISG
NAPA           PTCLDY    55  49  80 S6        30.16R
CONCORD        PTCLDY    62  45  53 CALM      30.15S
OAKLAND CITY   N/A       68  MM  MM MISG
OAKLAND        MOCLDY    58  49  72 W5        30.17S
SAN FRAN CITY  N/A       57  MM  80 MISG
SAN FRAN ARPT  MOCLDY    59  52  77 W10       30.17S
LIVERMORE      PTCLDY    62  42  47 NE5       30.16R
HAYWARD        PTCLDY    60  49  66 NW3       30.16S
REDWOOD CITY   N/A       MM  MM  MM MISG
MOFFETT ARPT   PTCLDY    59  46  62 CALM      30.16S
SAN JOSE ARPT  MOCLDY    58  47  66 W9        30.15S
$$
CAZ034-037-514>518-290300-
CENTRAL COAST

CITY           SKY/WX    TMP DP  RH WIND       PRES   REMARKS
WATSONVILLE    MOCLDY    60  47  61 SW3       30.16R
SALINAS        PTCLDY    65  45  48 N6        30.14R
MONTEREY       MOCLDY    58  50  75 CALM      30.16S
SAN LUIS OBISP CLOUDY    60  50  69 NW5       30.11R
SANTA MARIA    CLOUDY    63  52  67 CALM      30.11R
$$
CAZ015-016-290300-
NORTHERN SACRAMENTO VALLEY

CITY           SKY/WX    TMP DP  RH WIND       PRES   REMARKS
REDDING        PTCLDY    65  37  35 NW6       30.13S
RED BLUFF      PTCLDY    59  43  55 NW7       30.14S
OROVILLE       CLEAR     60  47  61 S10       30.15R
$$
CAZ016>018-290300-
SOUTHERN SACRAMENTO VALLEY

CITY           SKY/WX    TMP DP  RH WIND       PRES   REMARKS
AUBURN         PTCLDY    48  39  71 CALM      30.17F
BEALE AFB      CLEAR     56  49  78 SE8       30.14S
LINCOLN        FAIR      59  43  55 SE6       30.14F
MARYSVILLE     CLEAR     58  49  72 SE7       30.15S
SAC INTL ARPT  PTCLDY    58  48  69 SE8       30.15R
MATHER AIRPORT PTCLDY    55  55 100 E5        30.16S
DOWNTOWN SAC   N/A       59  MM  MM MISG
SAC EXEC ARPT  PTCLDY    58  48  69 CALM      30.16R
VACAVILLE      PTCLDY    62  46  55 S3        30.16S
TRAVIS AFB     PTCLDY    55  49  80 SW5       30.14S
$$
CAZ019>021-290300-
SAN JOAQUIN VALLEY

CITY           SKY/WX    TMP DP  RH WIND       PRES   REMARKS
STOCKTON       PTCLDY    58  47  66 CALM      30.16R
MODESTO        MOCLDY    58  46  64 CALM      30.17R
MERCED         MOCLDY   N/A N/A N/A S3        30.17S
LEMOORE        CLOUDY    54  51  90 CALM      30.19S FOG
FRESNO         CLOUDY    55  50  83 W3        30.19R
HANFORD        CLOUDY    54  50  86 CALM      30.20R FOG
PORTERVILLE    CLOUDY    52  48  87 CALM      30.19S
BAKERSFIELD    CLOUDY    57  50  77 NW6       30.18R
$$
CAZ011-012-071-290300-
NORTHERN MOUNTAINS

CITY           SKY/WX    TMP DP  RH WIND       PRES   REMARKS
YREKA          MOCLDY    44  38  79 CALM      30.27S
MOUNT SHASTA   MOCLDY    48  36  63 VRB3      30.25S
ALTURAS        PTCLDY    45  30  55 CALM      30.27S
$$
CAZ011-012-071-290300-
SIERRA NEVADA MTNS

CITY           SKY/WX    TMP DP  RH WIND       PRES   REMARKS
BLUE CANYON    PTCLDY    50  34  54 N3        30.24S
TRUCKEE        PTCLDY    41  27  56 CALM      30.27R
TAHOE VLY ARPT PTCLDY    39  27  62 CALM      30.27R
MAMMOTH LAKES  FAIR      39  27  60 E8        30.28R WCI  34
$$




USA.gov is the U.S. government's official web portal to all federal, state and local government web resources and services.